GW5532 Weather Reports


time (UTC)temp
C
wind
direction
speed
KPH
gust
KPH
rain 1hr
cm
rain 24hr
cm
rain mn
cm
humidity
%
barometer
mb
20260906204007 38 246 3.2 9.7 0.00 0.00 0.00 35 1012.5
20260906203510 38 205 1.6 9.7 0.00 0.00 0.00 36 1012.7
20260906203028 37 98 3.2 6.4 0.00 0.00 0.00 37 1012.8
20260906202509 37 112 1.6 4.8 0.00 0.00 0.00 34 1012.9
20260906202013 38 133 1.6 11.3 0.00 0.00 0.00 33 1012.9
20260906201538 38 177 4.8 14.5 0.00 0.00 0.00 33 1013.1
20260906201015 38 205 6.4 14.5 0.00 0.00 0.00 32 1012.9
20260906200517 39 268 3.2 14.5 0.00 0.00 0.00 34 1012.9
20260906200005 39 277 3.2 12.9 0.00 0.00 0.00 34 1013.0
20260906195503 38 139 4.8 12.9 0.00 0.00 0.00 33 1013.1
20260906195006 38 202 4.8 14.5 0.00 0.00 0.00 34 1013.2
20260906194512 38 265 6.4 14.5 0.00 0.00 0.00 33 1013.4
20260906194007 38 193 3.2 8.0 0.00 0.00 0.00 35 1013.4
20260906193510 38 141 3.2 11.3 0.00 0.00 0.00 35 1013.4
20260906193020 38 132 4.8 14.5 0.00 0.00 0.00 33 1013.6
20260906192511 38 47 6.4 14.5 0.00 0.00 0.00 34 1013.6
20260906192019 38 265 4.8 12.9 0.00 0.00 0.00 34 1013.6
20260906191525 38 88 4.8 11.3 0.00 0.00 0.00 35 1013.7
20260906191020 37 236 3.2 9.7 0.00 0.00 0.00 36 1013.7
20260906190504 37 334 1.6 14.5 0.00 0.00 0.00 36 1013.8
20260906190006 38 261 1.6 16.1 0.00 0.00 0.00 35 1013.9
20260906185508 37 236 6.4 17.7 0.00 0.00 0.00 35 1014.0
20260906185008 38 235 4.8 17.7 0.00 0.00 0.00 36 1014.1
20260906184516 38 96 4.8 14.5 0.00 0.00 0.00 38 1014.1
20260906184011 37 225 3.2 14.5 0.00 0.00 0.00 38 1014.1
20260906183513 37 173 1.6 14.5 0.00 0.00 0.00 38 1014.2
20260906183030 37 121 3.2 17.7 0.00 0.00 0.00 38 1014.3
20260906182514 37 188 3.2 17.7 0.00 0.00 0.00 36 1014.4
20260906182017 38 80 4.8 12.9 0.00 0.00 0.00 37 1014.4
20260906181539 37 177 1.6 8.0 0.00 0.00 0.00 39 1014.5
20260906181006 37 148 1.6 17.7 0.00 0.00 0.00 37 1014.5
20260906180504 37 153 4.8 17.7 0.00 0.00 0.00 35 1014.7
20260906180016 37 174 3.2 14.5 0.00 0.00 0.00 40 1014.6
20260906175510 37 268 1.6 14.5 0.00 0.00 0.00 39 1014.7
20260906175009 37 304 1.6 14.5 0.00 0.00 0.00 40 1014.9
20260906174518 36 93 3.2 12.9 0.00 0.00 0.00 42 1014.9
20260906174011 36 185 3.2 8.0 0.00 0.00 0.00 41 1014.9
20260906173515 37 273 0.0 8.0 0.00 0.00 0.00 43 1015.1
20260906173026 35 348 1.6 11.3 0.00 0.00 0.00 43 1015.3
20260906172514 36 218 1.6 11.3 0.00 0.00 0.00 42 1015.5
20260906172014 36 248 1.6 11.3 0.00 0.00 0.00 40 1015.6
20260906171531 37 178 1.6 11.3 0.00 0.00 0.00 42 1015.6
20260906171006 36 86 3.2 8.0 0.00 0.00 0.00 42 1015.7
20260906170506 35 69 1.6 8.0 0.00 0.00 0.00 42 1015.7
20260906170012 36 101 3.2 11.3 0.00 0.00 0.00 42 1015.8
20260906165510 35 103 4.8 9.7 0.00 0.00 0.00 43 1015.7
20260906165016 35 302 4.8 8.0 0.00 0.00 0.00 43 1015.7
20260906164522 35 202 1.6 6.4 0.00 0.00 0.00 44 1015.8
20260906164014 36 348 3.2 6.4 0.00 0.00 0.00 43 1015.8
20260906163513 35 317 3.2 6.4 0.00 0.00 0.00 44 1015.8
20260906163028 36 74 1.6 8.0 0.00 0.00 0.00 43 1015.8
20260906162517 35 196 1.6 8.0 0.00 0.00 0.00 45 1015.8
20260906162015 35 241 3.2 8.0 0.00 0.00 0.00 45 1015.9
20260906161511 34 167 1.6 4.8 0.00 0.00 0.00 47 1015.9
20260906161008 34 178 3.2 6.4 0.00 0.00 0.00 47 1015.9
20260906160509 33 206 3.2 6.4 0.00 0.00 0.00 48 1015.9
20260906160036 33 202 1.6 4.8 0.00 0.00 0.00 48 1016.0
20260906155513 33 279 0.0 6.4 0.00 0.00 0.00 48 1016.0
20260906155011 33 199 3.2 9.7 0.00 0.00 0.00 48 1016.1
20260906154526 33 263 0.0 9.7 0.00 0.00 0.00 49 1015.9
20260906154014 33 251 1.6 6.4 0.00 0.00 0.00 50 1015.9
20260906153517 33 259 1.6 4.8 0.00 0.00 0.00 51 1015.9
20260906153042 32 161 1.6 4.8 0.00 0.00 0.00 52 1015.8
20260906152519 32 250 1.6 6.4 0.00 0.00 0.00 53 1015.8
20260906152006 32 254 0.0 6.4 0.00 0.00 0.00 54 1015.7
20260906151510 31 255 1.6 6.4 0.00 0.00 0.00 55 1015.7
20260906151011 31 255 1.6 4.8 0.00 0.00 0.00 56 1015.7
20260906150510 31 205 0.0 4.8 0.00 0.00 0.00 57 1015.7
20260906150020 30 236 1.6 4.8 0.00 0.00 0.00 58 1015.7
20260906145511 30 268 1.6 4.8 0.00 0.00 0.00 59 1015.7
20260906145015 30 252 3.2 4.8 0.00 0.00 0.00 59 1015.7
20260906144533 30 231 1.6 4.8 0.00 0.00 0.00 59 1015.7
20260906144018 29 229 1.6 4.8 0.00 0.00 0.00 59 1015.7
20260906143516 29 238 1.6 6.4 0.00 0.00 0.00 60 1015.7
20260906143033 29 209 3.2 6.4 0.00 0.00 0.00 60 1015.7
20260906142508 29 234 1.6 6.4 0.00 0.00 0.00 60 1015.7
20260906142008 30 192 0.0 6.4 0.00 0.00 0.00 60 1015.7
20260906141514 29 173 1.6 4.8 0.00 0.00 0.00 59 1015.6
20260906141012 28 194 1.6 8.0 0.00 0.00 0.00 62 1015.5
20260906140504 28 259 1.6 8.0 0.00 0.00 0.00 60 1015.5
20260906140002 28 196 1.6 4.8 0.00 0.00 0.00 62 1015.5
20260906135502 28 310 0.0 4.8 0.00 0.00 0.00 62 1015.4
20260906135001 27 209 0.0 4.8 0.00 0.00 0.00 63 1015.3
20260906134507 27 205 0.0 4.8 0.00 0.00 0.00 64 1015.4
20260906134007 27 142 1.6 3.2 0.00 0.00 0.00 65 1015.5
20260906133505 27 161 0.0 6.4 0.00 0.00 0.00 65 1015.6
20260906133011 27 171 3.2 6.4 0.00 0.00 0.00 65 1015.5
20260906132509 26 185 0.0 4.8 0.00 0.00 0.00 66 1015.5
20260906132010 26 200 1.6 3.2 0.00 0.00 0.00 68 1015.5
20260906131520 26 200 0.0 0.0 0.00 0.00 0.00 69 1015.5
20260906131002 25 200 0.0 0.0 0.00 0.00 0.00 69 1015.5
20260906130502 25 200 0.0 0.0 0.00 0.00 0.00 69 1015.4
20260906130002 25 200 0.0 3.2 0.00 0.00 0.00 70 1015.3
20260906125502 25 200 0.0 3.2 0.00 0.00 0.00 71 1015.3
20260906125002 25 200 0.0 3.2 0.00 0.00 0.00 71 1015.3
20260906124506 25 200 0.0 0.0 0.00 0.00 0.00 72 1015.2
20260906124007 25 200 0.0 0.0 0.00 0.00 0.00 72 1015.1
20260906123506 24 200 0.0 0.0 0.00 0.00 0.00 72 1015.0
20260906123019 24 200 0.0 3.2 0.00 0.00 0.00 72 1014.9
20260906122510 24 200 0.0 3.2 0.00 0.00 0.00 72 1014.8
20260906122013 24 200 0.0 3.2 0.00 0.00 0.00 72 1014.7
20260906121506 24 200 0.0 3.2 0.00 0.00 0.00 72 1014.6
20260906121002 24 200 0.0 3.2 0.00 0.00 0.00 72 1014.6
20260906120502 24 200 0.0 3.2 0.00 0.00 0.00 72 1014.5
20260906120004 24 200 0.0 3.2 0.00 0.00 0.00 72 1014.4
20260906115506 24 200 0.0 3.2 0.00 0.00 0.00 72 1014.5
20260906115006 24 200 0.0 3.2 0.00 0.00 0.00 72 1014.4
20260906114520 24 200 0.0 3.2 0.00 0.00 0.00 71 1014.4
20260906114009 24 200 0.0 3.2 0.00 0.00 0.00 71 1014.3
20260906113510 24 200 0.0 3.2 0.00 0.00 0.00 71 1014.3
20260906113018 24 200 0.0 3.2 0.00 0.00 0.00 71 1014.2
20260906112513 24 200 0.0 3.2 0.00 0.00 0.00 71 1014.2
20260906112013 24 200 0.0 3.2 0.00 0.00 0.00 71 1014.2
20260906111504 24 200 0.0 3.2 0.00 0.00 0.00 71 1014.1
20260906111002 24 200 0.0 3.2 0.00 0.00 0.00 71 1014.0
20260906110502 24 200 0.0 3.2 0.00 0.00 0.00 71 1013.9
20260906110007 25 200 0.0 3.2 0.00 0.00 0.00 70 1013.9
20260906105506 24 200 0.0 3.2 0.00 0.00 0.00 70 1013.9
20260906105007 25 200 0.0 3.2 0.00 0.00 0.00 70 1013.9
20260906104514 25 200 0.0 3.2 0.00 0.00 0.00 70 1013.9
20260906104009 24 200 0.0 3.2 0.00 0.00 0.00 70 1013.9
20260906103509 25 200 0.0 3.2 0.00 0.00 0.00 70 1013.9
20260906103021 25 200 0.0 4.8 0.00 0.00 0.00 69 1013.8
20260906102515 25 200 0.0 4.8 0.00 0.00 0.00 69 1013.9
20260906102002 25 200 0.0 3.2 0.00 0.00 0.00 68 1013.9
20260906101504 25 200 0.0 3.2 0.00 0.00 0.00 67 1013.9
20260906101003 25 200 0.0 3.2 0.00 0.00 0.00 67 1013.8
20260906100510 25 200 0.0 3.2 0.00 0.00 0.00 66 1013.8
20260906100019 25 200 0.0 3.2 0.00 0.00 0.00 66 1013.8
20260906095507 25 200 0.0 3.2 0.00 0.00 0.00 65 1013.8
20260906095010 25 200 0.0 3.2 0.00 0.00 0.00 65 1013.8
20260906094518 26 200 0.0 3.2 0.00 0.00 0.00 65 1013.7
20260906094016 26 200 0.0 3.2 0.00 0.00 0.00 65 1013.6
20260906093514 26 200 0.0 3.2 0.00 0.00 0.00 65 1013.7
20260906093027 26 200 0.0 3.2 0.00 0.00 0.00 65 1013.6
20260906092518 26 200 0.0 3.2 0.00 0.00 0.00 65 1013.7
20260906092006 26 200 0.0 3.2 0.00 0.00 0.00 64 1013.7
20260906091507 26 200 0.0 3.2 0.00 0.00 0.00 64 1013.7
20260906091004 26 200 0.0 3.2 0.00 0.00 0.00 64 1013.7
20260906090509 26 200 0.0 1.6 0.00 0.00 0.00 64 1013.7
20260906090012 26 200 0.0 1.6 0.00 0.00 0.00 64 1013.7
20260906085511 26 200 0.0 3.2 0.00 0.00 0.00 63 1013.6
20260906085010 26 200 0.0 3.2 0.00 0.00 0.00 63 1013.6
20260906084520 26 200 0.0 3.2 0.00 0.00 0.00 63 1013.6
20260906084016 26 200 0.0 3.2 0.00 0.00 0.00 63 1013.6
20260906083516 26 200 0.0 0.0 0.00 0.00 0.00 63 1013.5
20260906083028 26 200 0.0 3.2 0.00 0.00 0.00 63 1013.5
20260906082503 26 200 0.0 3.2 0.00 0.00 0.00 63 1013.6
20260906082003 26 200 0.0 3.2 0.00 0.00 0.00 63 1013.6
20260906081513 26 200 0.0 3.2 0.00 0.00 0.00 63 1013.6
20260906081006 26 200 0.0 3.2 0.00 0.00 0.00 63 1013.6
20260906080511 26 200 0.0 3.2 0.00 0.00 0.00 62 1013.7
20260906080019 26 200 0.0 3.2 0.00 0.00 0.00 62 1013.6
20260906075512 26 200 0.0 3.2 0.00 0.00 0.00 62 1013.5
20260906075014 26 200 0.0 3.2 0.00 0.00 0.00 62 1013.6
20260906074524 26 200 0.0 3.2 0.00 0.00 0.00 61 1013.6
20260906074016 26 200 0.0 3.2 0.00 0.00 0.00 61 1013.5
20260906073517 26 200 0.0 3.2 0.00 0.00 0.00 61 1013.5
20260906073006 26 200 0.0 3.2 0.00 0.00 0.00 61 1013.5
20260906072504 26 200 0.0 3.2 0.00 0.00 0.00 60 1013.5
20260906072006 27 200 0.0 3.2 0.00 0.00 0.00 60 1013.4
20260906071515 27 200 0.0 3.2 0.00 0.00 0.00 60 1013.5
20260906071009 27 200 0.0 3.2 0.00 0.00 0.00 59 1013.5
20260906070509 27 200 0.0 3.2 0.00 0.00 0.00 59 1013.5
20260906070018 27 200 0.0 3.2 0.00 0.00 0.00 59 1013.5
20260906065514 27 200 0.0 3.2 0.00 0.00 0.00 59 1013.4
20260906065004 27 200 0.0 3.2 0.00 0.00 0.00 59 1013.4
20260906064505 27 200 0.0 3.2 0.00 0.00 0.00 58 1013.4
20260906064004 27 200 0.0 3.2 0.00 0.00 0.00 57 1013.4
20260906063503 27 200 0.0 3.2 0.00 0.00 0.00 58 1013.4
20260906063010 27 200 0.0 3.2 0.00 0.00 0.00 57 1013.5
20260906062509 27 200 0.0 1.6 0.00 0.00 0.00 56 1013.4
20260906062007 28 200 0.0 3.2 0.00 0.00 0.00 56 1013.4
20260906061514 28 200 0.0 3.2 0.00 0.00 0.00 56 1013.4
20260906061015 28 200 0.0 0.0 0.00 0.00 0.00 56 1013.5
20260906060513 28 200 0.0 1.6 0.00 0.00 0.00 56 1013.5
20260906060024 28 200 0.0 3.2 0.00 0.00 0.00 55 1013.5
20260906055504 28 200 0.0 3.2 0.00 0.00 0.00 55 1013.4
20260906055004 28 200 0.0 3.2 0.00 0.00 0.00 55 1013.4
20260906054503 28 200 0.0 3.2 0.00 0.00 0.00 55 1013.3
20260906054005 28 200 0.0 3.2 0.00 0.00 0.00 54 1013.2
20260906053505 28 200 0.0 3.2 0.00 0.00 0.00 54 1013.1
20260906053008 28 200 0.0 3.2 0.00 0.00 0.00 54 1013.0
20260906052507 28 200 0.0 3.2 0.00 0.00 0.00 54 1013.1
20260906052011 28 200 0.0 3.2 0.00 0.00 0.00 54 1013.1
20260906051518 28 200 0.0 3.2 0.00 0.00 0.00 54 1013.1
20260906051016 28 200 0.0 3.2 0.00 0.00 0.00 54 1013.3
20260906050515 28 200 0.0 3.2 0.00 0.00 0.00 54 1013.2
20260906050004 28 200 0.0 3.2 0.00 0.00 0.00 53 1013.2
20260906045503 29 200 1.6 3.2 0.00 0.00 0.00 53 1013.2
20260906045003 29 200 0.0 3.2 0.00 0.00 0.00 53 1013.1
20260906044507 29 200 0.0 3.2 0.00 0.00 0.00 53 1013.1
20260906044010 29 200 0.0 3.2 0.00 0.00 0.00 52 1013.1
20260906043508 29 200 0.0 3.2 0.00 0.00 0.00 52 1013.1
20260906043026 29 200 0.0 3.2 0.00 0.00 0.00 52 1013.1
20260906042510 29 200 0.0 3.2 0.00 0.00 0.00 51 1013.1
20260906042014 30 200 0.0 3.2 0.00 0.00 0.00 51 1013.0
20260906041523 30 200 0.0 3.2 0.00 0.00 0.00 51 1013.1
20260906041014 30 200 0.0 3.2 0.00 0.00 0.00 50 1013.1
20260906040514 30 200 0.0 3.2 0.00 0.00 0.00 50 1013.2
20260906040003 30 265 0.0 4.8 0.00 0.00 0.00 50 1013.2
20260906035502 30 182 0.0 4.8 0.00 0.00 0.00 49 1013.2
20260906035006 30 254 0.0 4.8 0.00 0.00 0.00 49 1013.2
20260906034511 30 172 0.0 6.4 0.00 0.00 0.00 48 1013.2
20260906034010 31 167 1.6 6.4 0.00 0.00 0.00 48 1013.2
20260906033509 31 165 0.0 3.2 0.00 0.00 0.00 48 1013.2
20260906033018 31 179 0.0 3.2 0.00 0.00 0.00 47 1013.2
20260906032513 31 157 1.6 8.0 0.00 0.00 0.00 47 1013.2
20260906032013 31 165 1.6 8.0 0.00 0.00 0.00 47 1013.2
20260906031529 31 182 1.6 3.2 0.00 0.00 0.00 47 1013.2
20260906031014 31 175 1.6 3.2 0.00 0.00 0.00 47 1013.2
20260906030504 31 175 1.6 3.2 0.00 0.00 0.00 48 1013.2
20260906030006 31 140 0.0 3.2 0.00 0.00 0.00 48 1013.3
20260906025512 31 140 1.6 4.8 0.00 0.00 0.00 48 1013.2
20260906025006 31 167 0.0 4.8 0.00 0.00 0.00 48 1013.1
20260906024511 31 148 1.6 4.8 0.00 0.00 0.00 47 1013.1
20260906024015 31 157 1.6 3.2 0.00 0.00 0.00 47 1013.2
20260906023512 31 180 0.0 3.2 0.00 0.00 0.00 47 1013.2
20260906023027 31 184 0.0 3.2 0.00 0.00 0.00 47 1013.2
20260906022512 31 180 0.0 3.2 0.00 0.00 0.00 46 1013.0
20260906022016 31 132 0.0 3.2 0.00 0.00 0.00 46 1012.9
20260906021538 32 132 0.0 3.2 0.00 0.00 0.00 45 1012.9
20260906021002 32 132 0.0 3.2 0.00 0.00 0.00 45 1012.8
20260906020507 32 171 1.6 3.2 0.00 0.00 0.00 45 1012.7
20260906020009 32 163 0.0 3.2 0.00 0.00 0.00 45 1012.5
20260906015508 32 148 0.0 3.2 0.00 0.00 0.00 45 1012.5
20260906015007 32 152 0.0 3.2 0.00 0.00 0.00 45 1012.5
20260906014516 32 152 0.0 3.2 0.00 0.00 0.00 44 1012.4
20260906014013 32 152 0.0 3.2 0.00 0.00 0.00 44 1012.4
20260906013510 32 152 0.0 3.2 0.00 0.00 0.00 44 1012.3
20260906013024 32 164 0.0 3.2 0.00 0.00 0.00 43 1012.1
20260906012513 33 146 0.0 3.2 0.00 0.00 0.00 42 1012.1
20260906012016 33 146 0.0 3.2 0.00 0.00 0.00 42 1012.1
20260906011506 33 127 1.6 3.2 0.00 0.00 0.00 42 1012.1
20260906011007 33 127 0.0 3.2 0.00 0.00 0.00 41 1012.1
20260906010506 33 127 0.0 3.2 0.00 0.00 0.00 41 1012.0
20260906010012 33 128 0.0 3.2 0.00 0.00 0.00 41 1011.9
20260906005507 34 128 1.6 3.2 0.00 0.00 0.00 40 1011.8
20260906005012 34 155 0.0 4.8 0.00 0.00 0.00 40 1011.8
20260906004522 34 166 3.2 6.4 0.00 0.00 0.00 39 1011.8
20260906004012 35 165 1.6 6.4 0.00 0.00 0.00 39 1011.9
20260906003512 35 143 0.0 4.8 0.00 0.00 0.00 39 1011.9
20260906003030 35 165 1.6 8.0 0.00 0.00 0.00 38 1011.8
20260906002515 35 150 1.6 8.0 0.00 0.00 0.00 37 1011.9
20260906002017 35 165 1.6 8.0 0.00 0.00 0.00 37 1011.8
20260906001506 36 167 1.6 6.4 0.00 0.00 0.00 37 1011.9
20260906001008 36 206 0.0 6.4 0.00 0.00 0.00 36 1011.8
20260906000508 36 23 1.6 8.0 0.00 0.00 0.00 36 1011.7
20260906000017 36 219 1.6 9.7 0.00 0.00 0.00 36 1011.6
20260905235511 36 174 3.2 11.3 0.00 0.00 0.00 35 1011.5
20260905235012 36 98 4.8 11.3 0.00 0.00 0.00 35 1011.4
20260905234523 37 284 3.2 9.7 0.00 0.00 0.00 35 1011.4
20260905234019 37 179 3.2 11.3 0.00 0.00 0.00 35 1011.4
20260905233515 37 203 3.2 14.5 0.00 0.00 0.00 35 1011.4
20260905233032 37 214 4.8 14.5 0.00 0.00 0.00 35 1011.4
20260905232520 37 116 3.2 12.9 0.00 0.00 0.00 35 1011.3
20260905232008 37 165 1.6 11.3 0.00 0.00 0.00 35 1011.2
20260905231514 37 99 3.2 11.3 0.00 0.00 0.00 35 1011.3
20260905231009 37 100 1.6 9.7 0.00 0.00 0.00 35 1011.3
20260905230511 37 167 3.2 12.9 0.00 0.00 0.00 35 1011.3
20260905230021 37 158 4.8 12.9 0.00 0.00 0.00 35 1011.3
20260905225516 37 134 3.2 12.9 0.00 0.00 0.00 35 1011.3
20260905225012 37 184 3.2 12.9 0.00 0.00 0.00 35 1011.2
20260905224505 37 93 6.4 12.9 0.00 0.00 0.00 34 1011.3
20260905224003 37 90 4.8 16.1 0.00 0.00 0.00 34 1011.3
20260905223505 37 157 3.2 17.7 0.00 0.00 0.00 35 1011.2
20260905223011 37 160 6.4 17.7 0.00 0.00 0.00 35 1011.2
20260905222508 37 145 4.8 12.9 0.00 0.00 0.00 35 1011.3
20260905222010 38 221 4.8 12.9 0.00 0.00 0.00 34 1011.3
20260905221517 38 237 3.2 9.7 0.00 0.00 0.00 35 1011.3
20260905221011 37 159 3.2 14.5 0.00 0.00 0.00 35 1011.3
20260905220512 37 225 4.8 16.1 0.00 0.00 0.00 35 1011.4
20260905220024 38 204 6.4 16.1 0.00 0.00 0.00 34 1011.4
20260905215516 38 220 3.2 11.3 0.00 0.00 0.00 34 1011.5
20260905215016 38 182 3.2 11.3 0.00 0.00 0.00 34 1011.5
20260905214511 38 83 1.6 12.9 0.00 0.00 0.00 36 1011.5
20260905214007 38 141 4.8 12.9 0.00 0.00 0.00 34 1011.7
20260905213506 37 156 4.8 14.5 0.00 0.00 0.00 35 1011.7
20260905213011 37 232 6.4 14.5 0.00 0.00 0.00 35 1011.6
20260905212508 37 229 3.2 16.1 0.00 0.00 0.00 34 1011.8
20260905212008 38 184 4.8 16.1 0.00 0.00 0.00 35 1011.9
20260905211517 38 168 4.8 14.5 0.00 0.00 0.00 34 1011.9
20260905211012 38 140 4.8 14.5 0.00 0.00 0.00 34 1012.0
20260905210514 38 190 4.8 14.5 0.00 0.00 0.00 35 1012.0
20260905210038 38 224 8.0 14.5 0.00 0.00 0.00 34 1012.2
20260905205516 38 175 3.2 14.5 0.00 0.00 0.00 34 1012.3
20260905205006 38 223 1.6 12.9 0.00 0.00 0.00 37 1012.4
20260905204505 37 79 4.8 12.9 0.00 0.00 0.00 37 1012.4